sat.trackr.live / text

‹ back to catalog

STARLINK-31979

NORAD 59964 · 2024-107V

PAYLOAD ACTIVE UNKNOWN

§ Identity

Operator
Country
US
Launch date
2024-06-05
Launch site
AFETR
Launch vehicle
Mass (kg)
RCS (m²)

Purposes: comms

External: N2YO · Heavens-Above · Gunter

§ Orbital elements

Epoch: 2026-05-25T02:17:21.071328Z

Period
94.11 min
Inclination
53.1608°
Eccentricity
0.0001333
Mean motion
15.30194497 rev/d
Perigee alt
474.3 km
Apogee alt
476.1 km
Semi-major
6,853.4 km
B*
2.5080e-5
RAAN
70.6901°
Arg perigee
93.6994°
Mean anomaly
266.4160°
Rev number
11,144

§ Raw data

STARLINK-319791 59964U 24107V   26145.09538277  .00000384  00000+0  25080-4 0  99992 59964  53.1608  70.6901 0001333  93.6994 266.4160 15.30194497111440

JSON: /api/v1/satellites/59964 · /tle

For live sub-satellite position, see the globe view (requires WebGL).

§ Visibility from observer

Set your observer location to see the next 7 days of passes ≥ 10°. The values pass through the URL so the page stays shareable.

No JS? Fill the form by hand. The geolocation button needs JavaScript.